[Date Prev][Date Next][Thread Prev][Thread Next] - [Date Index][Thread Index][Author Index]
2 Line ISS Keps 7-9
- Subject: [sarex] 2 Line ISS Keps 7-9
- From: "Dave Larsen PhD" <doc@xxxxxxxxxxx>
- Date: Fri, 9 Jul 2004 03:00:12 -0700
ISS
1 25544U 98067A 04191.33122685 .00004490 00000-0 42026-4 0 1789
2 25544 51.6301 212.7899 0005997 345.2952 209.9444 15.69614485321799
----
Via the sarex mailing list at AMSAT.ORG courtesy of AMSAT-NA.
To unsubscribe, send "unsubscribe sarex" to Majordomo@amsat.org
AMSAT Home